Time,TemperatureF,DewpointF,PressureIn,WindDirection,WindDirectionDegrees,WindSpeedMPH,WindSpeedGustMPH,Humidity,HourlyPrecipIn,Conditions,Clouds,dailyrainin,SoftwareType,DateUTC
2013-07-30 00:33:00,58.0,-99.9,-100.00,ENE,70,-999.0,-999.0,-999,0.00,,,-99.99,,2013-07-30 04:33:00,
2013-07-30 00:43:00,58.0,-99.9,-100.00,ENE,70,-999.0,-999.0,-999,0.00,,,-99.99,,2013-07-30 04:43:00,
2013-07-30 00:52:00,57.0,-99.9,-100.00,ENE,70,-999.0,-999.0,-999,0.00,,,-99.99,,2013-07-30 04:52:00,
2013-07-30 01:45:00,57.0,-99.9,-100.00,ENE,70,-999.0,-999.0,-999,0.00,,,-99.99,,2013-07-30 05:45:00,
2013-07-30 01:52:00,56.0,-99.9,-100.00,ENE,70,-999.0,-999.0,-999,0.00,,,-99.99,,2013-07-30 05:52:00,
2013-07-30 02:33:00,56.0,-99.9,-100.00,ENE,70,-999.0,-999.0,-999,0.00,,,-99.99,,2013-07-30 06:33:00,
2013-07-30 02:43:00,56.0,-99.9,-100.00,ENE,70,-999.0,-999.0,-999,0.00,,,-99.99,,2013-07-30 06:43:00,
2013-07-30 02:52:00,55.0,-99.9,-100.00,ENE,70,-999.0,-999.0,-999,0.00,,,-99.99,,2013-07-30 06:52:00,
2013-07-30 03:33:00,55.0,-99.9,-100.00,ENE,70,-999.0,-999.0,-999,0.00,,,-99.99,,2013-07-30 07:33:00,
2013-07-30 03:43:00,55.0,-99.9,-100.00,ENE,70,-999.0,-999.0,-999,0.00,,,-99.99,,2013-07-30 07:43:00,
2013-07-30 03:52:00,54.0,-99.9,-100.00,ENE,70,-999.0,-999.0,-999,0.00,,,-99.99,,2013-07-30 07:52:00,
2013-07-30 04:33:00,54.0,-99.9,-100.00,ENE,70,-999.0,-999.0,-999,0.00,,,-99.99,,2013-07-30 08:33:00,
2013-07-30 04:43:00,54.0,-99.9,-100.00,ENE,70,-999.0,-999.0,-999,0.00,,,-99.99,,2013-07-30 08:43:00,
2013-07-30 04:52:00,54.0,-99.9,-100.00,ENE,70,-999.0,-999.0,-999,0.00,,,-99.99,,2013-07-30 08:52:00,
2013-07-30 05:33:00,54.0,-99.9,-100.00,ENE,70,-999.0,-999.0,-999,0.00,,,-99.99,,2013-07-30 09:33:00,
2013-07-30 05:43:00,54.0,-99.9,-100.00,ENE,70,-999.0,-999.0,-999,0.00,,,-99.99,,2013-07-30 09:43:00,
2013-07-30 06:52:00,54.0,-99.9,-100.00,ENE,70,-999.0,-999.0,-999,0.00,,,-99.99,,2013-07-30 10:52:00,
2013-07-30 07:33:00,54.0,-99.9,-100.00,ENE,70,-999.0,-999.0,-999,0.00,,,-99.99,,2013-07-30 11:33:00,
2013-07-30 07:43:00,54.0,-99.9,-100.00,ENE,70,-999.0,-999.0,-999,0.00,,,-99.99,,2013-07-30 11:43:00,
2013-07-30 07:52:00,59.0,-99.9,-100.00,ENE,70,-999.0,-999.0,-999,0.00,,,-99.99,,2013-07-30 11:52:00,
2013-07-30 08:33:00,59.0,-99.9,-100.00,ENE,70,-999.0,-999.0,-999,0.00,,,-99.99,,2013-07-30 12:33:00,
2013-07-30 08:42:00,59.0,-99.9,-100.00,ENE,70,-999.0,-999.0,-999,0.00,,,-99.99,,2013-07-30 12:42:00,
2013-07-30 08:52:00,67.0,-99.9,-100.00,ENE,70,-999.0,-999.0,-999,0.00,,,-99.99,,2013-07-30 12:52:00,
2013-07-30 09:43:00,67.0,-99.9,-100.00,ENE,70,-999.0,-999.0,-999,0.00,,,-99.99,,2013-07-30 13:43:00,
2013-07-30 09:52:00,72.0,-99.9,-100.00,ENE,76,-999.0,7.0,-999,0.00,,,-99.99,,2013-07-30 13:52:00,
2013-07-30 10:43:00,72.0,-99.9,-100.00,ENE,76,-999.0,7.0,-999,0.00,,,-99.99,,2013-07-30 14:43:00,
2013-07-30 10:52:00,75.0,-99.9,-100.00,SSE,166,-999.0,7.0,-999,0.00,,,-99.99,,2013-07-30 14:52:00,
2013-07-30 11:44:00,75.0,-99.9,-100.00,SSE,166,-999.0,7.0,-999,0.00,,,-99.99,,2013-07-30 15:44:00,
2013-07-30 12:52:00,76.0,-99.9,-100.00,East,94,3.0,6.0,-999,0.00,,,-99.99,,2013-07-30 16:52:00,
2013-07-30 13:33:00,76.0,-99.9,-100.00,East,94,3.0,6.0,-999,0.00,,,-99.99,,2013-07-30 17:33:00,
2013-07-30 13:43:00,76.0,-99.9,-100.00,East,94,3.0,6.0,-999,0.00,,,-99.99,,2013-07-30 17:43:00,
2013-07-30 13:52:00,72.0,-99.9,-100.00,SE,127,-999.0,-999.0,-999,0.00,,,-99.99,,2013-07-30 17:52:00,
2013-07-30 14:33:00,72.0,-99.9,-100.00,SE,127,-999.0,-999.0,-999,0.00,,,-99.99,,2013-07-30 18:33:00,
2013-07-30 14:43:00,72.0,-99.9,-100.00,SE,127,-999.0,-999.0,-999,0.00,,,-99.99,,2013-07-30 18:43:00,
2013-07-30 14:52:00,73.0,-99.9,-100.00,NE,40,-999.0,3.0,-999,0.00,,,-99.99,,2013-07-30 18:52:00,
2013-07-30 15:33:00,73.0,-99.9,-100.00,NE,40,-999.0,3.0,-999,0.00,,,-99.99,,2013-07-30 19:33:00,
2013-07-30 15:44:00,73.0,-99.9,-100.00,NE,40,-999.0,3.0,-999,0.00,,,-99.99,,2013-07-30 19:44:00,
2013-07-30 15:52:00,73.0,-99.9,-100.00,SW,230,-999.0,6.0,-999,0.00,,,-99.99,,2013-07-30 19:52:00,
2013-07-30 16:43:00,73.0,-99.9,-100.00,SW,230,-999.0,6.0,-999,0.00,,,-99.99,,2013-07-30 20:43:00,
2013-07-30 16:52:00,73.0,-99.9,-100.00,WSW,242,-999.0,3.0,-999,0.00,,,-99.99,,2013-07-30 20:52:00,
2013-07-30 17:32:00,73.0,-99.9,-100.00,WSW,242,-999.0,3.0,-999,0.00,,,-99.99,,2013-07-30 21:32:00,
2013-07-30 17:42:00,73.0,-99.9,-100.00,WSW,242,-999.0,3.0,-999,0.00,,,-99.99,,2013-07-30 21:42:00,
2013-07-30 17:52:00,71.0,-99.9,-100.00,SW,226,-999.0,-999.0,-999,0.00,,,-99.99,,2013-07-30 21:52:00,
2013-07-30 18:32:00,71.0,-99.9,-100.00,SW,226,-999.0,-999.0,-999,0.00,,,-99.99,,2013-07-30 22:32:00,
2013-07-30 18:43:00,71.0,-99.9,-100.00,SW,226,-999.0,-999.0,-999,0.00,,,-99.99,,2013-07-30 22:43:00,
2013-07-30 18:52:00,70.0,-99.9,-100.00,SW,226,-999.0,-999.0,-999,0.00,,,-99.99,,2013-07-30 22:52:00,
2013-07-30 19:32:00,70.0,-99.9,-100.00,SW,226,-999.0,-999.0,-999,0.00,,,-99.99,,2013-07-30 23:32:00,
2013-07-30 19:42:00,70.0,-99.9,-100.00,SW,226,-999.0,-999.0,-999,0.00,,,-99.99,,2013-07-30 23:42:00,
2013-07-30 19:52:00,69.0,-99.9,-100.00,SE,126,-999.0,-999.0,-999,0.00,,,-99.99,,2013-07-30 23:52:00,
2013-07-30 20:32:00,69.0,-99.9,-100.00,SE,126,-999.0,-999.0,-999,0.00,,,-99.99,,2013-07-31 00:32:00,
2013-07-30 20:43:00,69.0,-99.9,-100.00,SE,126,-999.0,-999.0,-999,0.00,,,-99.99,,2013-07-31 00:43:00,
2013-07-30 21:32:00,66.0,-99.9,-100.00,SE,126,-999.0,-999.0,-999,0.00,,,-99.99,,2013-07-31 01:32:00,
2013-07-30 21:43:00,66.0,-99.9,-100.00,SE,126,-999.0,-999.0,-999,0.00,,,-99.99,,2013-07-31 01:43:00,
2013-07-30 21:52:00,66.0,-99.9,-100.00,SE,126,-999.0,-999.0,-999,0.00,,,-99.99,,2013-07-31 01:52:00,
2013-07-30 22:32:00,63.0,-99.9,-100.00,SE,126,-999.0,-999.0,-999,0.00,,,-99.99,,2013-07-31 02:32:00,
2013-07-30 22:43:00,63.0,-99.9,-100.00,SE,126,-999.0,-999.0,-999,0.00,,,-99.99,,2013-07-31 02:43:00,
2013-07-30 22:52:00,60.0,-99.9,-100.00,SE,126,-999.0,-999.0,-999,0.00,,,-99.99,,2013-07-31 02:52:00,
2013-07-30 23:32:00,60.0,-99.9,-100.00,SE,126,-999.0,-999.0,-999,0.00,,,-99.99,,2013-07-31 03:32:00,
2013-07-30 23:42:00,60.0,-99.9,-100.00,SE,126,-999.0,-999.0,-999,0.00,,,-99.99,,2013-07-31 03:42:00,
2013-07-30 23:52:00,59.0,-99.9,-100.00,SE,126,-999.0,-999.0,-999,0.00,,,-99.99,,2013-07-31 03:52:00,